Погода в Дджербе-Мидун

Тунис     33°48′38″N   10°59′25″E
темп.,
°C
ветер,
м/с
пор.,
м/с
влажн.,
%
обл.,
%
осадки,
мм/ч
давл.,
гПа
погр.,
м
13 августа, сб
сб1301:00+27вюв22600 0.0 1014203
04:00+26сз11650 0.0 1014180
07:00+27юз11600 0.0 1015173
10:00+30ююз22460 0.0 1015739
13:00+33юв22380 0.0 1014971
16:00+34вюв42390 0.0 1013480
19:00+30ююв78570 0.0 1011132
22:00+30ююв69570 0.0 1012155
14 августа, вс
вс1401:00+29ююз711470 0.0 1011177
04:00+30ююз69470 0.0 1010109
07:00+31з35440 0.0 1011116
10:00+35зсз810350 0.0 1012598
13:00+37сз68290 0.0 1010736
16:00+34всв65460 0.0 1009215
19:00+30в710723 0.0 1008186
22:00+29юв58765 0.0 1010204
15 августа, пн
пн1501:00+29ююв577752 0.0 1010170
04:00+29ююв45645 0.0 100965
07:00+31ю575015 0.0 1009137
10:00+36юз34305 0.0 1010413
13:00+38сз15305 0.0 10081164
16:00+38вюв53348 0.0 1007267
19:00+31юв8116570 0.0 1007126
22:00+31юв156469 0.0 100972
16 августа, вт
вт1601:00+30в56695 0.0 100972
04:00+30ююв44670 0.0 100841
07:00+31всв226171 0.0 100936
10:00+34ссз664721 0.0 1011359
13:00+36с34431 0.0 1011394
16:00+34св78534 0.0 1010260
19:00+30всв812730 0.0 1010192
22:00+30вюв610790 0.0 1012246
17 августа, ср
ср1701:00+29в34780 0.0 101283
04:00+29в44700 0.0 101153
07:00+30ююв34710 0.0 1012139
10:00+34юв34460 0.0 1012249
13:00+37вюв43400 0.0 1010457
16:00+35в89484 0.0 1009167
19:00+31в712685 0.0 1009140
22:00+30юв915715 0.0 1010223